EW8543 Weather Reports


Display with metric or nautical units.
time (UTC)temp
F
wind
direction
speed
MPH
gust
MPH
rain 1hr
in
rain 24hr
in
rain mn
in
humidity
%
barometer
mb
20200229135100 46 217 14.0 27.0 0.00 2.56 0.03 86 985.2
20200229134556 46 185 13.0 31.0 0.00 2.56 0.03 86 985.1
20200229134100 46 246 18.0 32.0 0.00 2.56 0.03 86 985.0
20200229133551 46 279 9.0 32.0 0.04 2.56 0.03 88 984.8
20200229133101 46 241 17.0 30.0 0.12 2.56 0.03 88 984.7
20200229132552 45 269 13.0 30.0 0.12 2.56 0.03 88 984.5
20200229132101 45 240 15.0 35.0 0.12 2.56 0.03 88 984.3
20200229131555 45 279 22.0 36.0 0.12 2.56 0.03 88 984.2
20200229131047 45 241 19.0 37.0 0.12 2.56 0.03 89 984.0
20200229130556 45 254 22.0 34.0 0.12 2.56 0.03 89 983.7
20200229130058 45 265 23.0 33.0 0.12 2.56 0.03 88 983.6
20200229125551 46 257 17.0 30.0 0.12 2.56 0.03 88 983.4
20200229125044 46 225 25.0 34.0 0.12 2.56 0.03 87 983.2
20200229124555 47 286 20.0 38.0 0.12 2.56 0.03 86 982.9
20200229124044 49 238 20.0 38.0 0.12 2.56 0.03 84 982.5
20200229123558 51 180 13.0 24.0 0.04 2.48 0.02 85 981.4
20200229123045 51 176 11.0 26.0 0.00 2.44 0.01 84 981.5
20200229122555 51 223 12.0 26.0 0.04 2.44 0.01 85 981.4
20200229122048 51 157 12.0 19.0 0.04 2.44 0.01 86 981.5
20200229121601 51 157 11.0 16.0 0.04 2.44 0.01 86 981.6
20200229121054 51 169 11.0 18.0 0.04 2.44 0.01 86 981.8
20200229120543 51 165 12.0 25.0 0.04 2.44 0.01 86 981.8
20200229120049 51 177 11.0 25.0 0.04 2.44 0.01 86 981.9
20200229115601 51 157 12.0 25.0 0.04 2.44 0.01 87 982.0
20200229115051 51 199 11.0 23.0 0.04 2.44 0.01 87 982.1
20200229114543 51 127 11.0 23.0 0.04 2.44 0.01 86 982.3
20200229114056 51 167 10.0 22.0 0.04 2.44 0.01 85 982.5
20200229113549 51 154 10.0 22.0 0.04 2.44 0.01 84 982.6
20200229113059 51 168 11.0 22.0 0.04 2.44 0.01 83 982.5
20200229112553 52 153 12.0 19.0 0.00 2.40 0.00 82 982.6
20200229112045 52 135 12.0 22.0 0.00 2.40 0.00 81 982.8
20200229111600 52 206 12.0 21.0 0.00 2.40 0.00 81 982.9
20200229111046 52 155 15.0 21.0 0.00 2.40 0.00 80 983.0
20200229110600 52 135 10.0 20.0 0.00 2.40 0.00 79 983.1
20200229110106 52 192 13.0 20.0 0.00 2.40 0.00 78 983.3
20200229105556 52 173 13.0 22.0 0.00 2.40 0.00 78 983.5
20200229105044 52 126 12.0 21.0 0.00 2.40 0.00 78 983.3
20200229104559 53 138 10.0 19.0 0.00 2.40 0.00 78 983.6
20200229104049 53 130 11.0 22.0 0.00 2.40 0.00 77 983.9
20200229103543 53 124 15.0 22.0 0.00 2.40 0.00 77 983.9
20200229103052 52 155 15.0 24.0 0.00 2.40 0.00 78 984.0
20200229102545 52 124 13.0 24.0 0.00 2.40 0.00 78 984.1
20200229102058 52 122 11.0 23.0 0.00 2.40 0.00 78 984.2
20200229101548 52 146 12.0 24.0 0.00 2.40 0.00 77 984.2
20200229101101 52 167 12.0 22.0 0.00 2.40 0.00 77 984.4
20200229100552 52 134 13.0 24.0 0.00 2.40 0.00 77 984.4
20200229100052 52 142 13.0 24.0 0.00 2.40 0.00 77 984.6
20200229095602 52 175 10.0 23.0 0.00 2.40 0.00 77 984.9
20200229095054 52 174 12.0 21.0 0.00 2.40 0.00 77 985.1
20200229094548 52 127 14.0 21.0 0.00 2.40 0.00 77 985.0
20200229094059 52 171 14.0 22.0 0.00 2.40 0.00 77 985.1
20200229093550 52 190 13.0 21.0 0.00 2.40 0.00 78 985.4
20200229093102 52 150 11.0 25.0 0.00 2.40 0.00 78 985.5
20200229092555 51 114 14.0 25.0 0.00 2.40 0.00 78 985.8
20200229092049 51 144 9.0 20.0 0.00 2.40 0.00 79 986.2
20200229091051 51 167 10.0 19.0 0.00 2.40 0.00 81 986.3
20200229090544 51 200 11.0 21.0 0.00 2.40 0.00 81 986.3
20200229090100 51 140 11.0 21.0 0.00 2.40 0.00 82 986.3
20200229085553 50 155 13.0 21.0 0.00 2.40 0.00 82 986.2
20200229085044 50 147 14.0 21.0 0.00 2.40 0.00 83 986.4
20200229084559 50 168 13.0 23.0 0.00 2.40 0.00 84 986.5
20200229084103 49 145 13.0 23.0 0.00 2.40 0.00 85 986.7
20200229083556 49 167 13.0 24.0 0.00 2.40 0.00 86 986.8
20200229083048 49 124 14.0 24.0 0.00 2.40 0.00 86 986.8
20200229082542 49 169 12.0 21.0 0.00 2.40 0.00 86 987.0
20200229082047 48 127 15.0 23.0 0.00 2.40 0.00 87 987.2
20200229081559 48 147 14.0 22.0 0.00 2.40 0.00 87 987.4
20200229081053 48 155 11.0 22.0 0.00 2.40 0.00 87 987.5
20200229080547 48 153 13.0 22.0 0.00 2.40 0.00 87 987.7
20200229080050 48 135 13.0 20.0 0.00 2.40 0.00 87 987.9
20200229075545 48 159 10.0 20.0 0.00 2.40 0.00 87 987.8
20200229075059 48 183 12.0 23.0 0.00 2.40 0.00 87 988.1
20200229074553 48 159 9.0 20.0 0.00 2.40 0.00 87 988.2
20200229074101 48 161 13.0 21.0 0.00 2.40 0.00 87 988.4
20200229073555 48 157 12.0 21.0 0.00 2.40 0.00 88 988.4
20200229073048 48 171 11.0 19.0 0.00 2.40 0.00 88 988.6
20200229072557 48 119 11.0 22.0 0.00 2.40 0.00 88 988.7
20200229072050 48 149 11.0 22.0 0.00 2.40 0.00 88 988.9
20200229071543 48 138 11.0 17.0 0.00 2.40 0.00 88 989.1
20200229071052 48 140 10.0 15.0 0.00 2.40 0.00 88 989.2
20200229070600 48 150 8.0 19.0 0.00 2.40 0.00 88 989.4
20200229070043 48 139 11.0 19.0 0.00 2.40 0.00 88 989.5
20200229065556 48 164 13.0 19.0 0.00 2.40 0.00 88 989.6
20200229065049 48 119 13.0 20.0 0.00 2.40 0.00 88 989.7
20200229064600 48 167 9.0 21.0 0.00 2.40 0.00 88 989.9
20200229064052 48 182 12.0 21.0 0.00 2.40 0.00 88 989.9
20200229063547 48 128 11.0 18.0 0.00 2.40 0.00 88 990.1
20200229063058 48 136 12.0 20.0 0.00 2.40 0.00 88 990.3
20200229062548 48 180 11.0 20.0 0.00 2.40 0.00 88 990.4
20200229062059 48 225 12.0 19.0 0.00 2.40 0.00 89 990.5
20200229061553 48 209 10.0 22.0 0.00 2.40 0.00 89 990.5
20200229061046 48 138 11.0 22.0 0.00 2.40 0.00 89 990.7
20200229060555 48 172 9.0 19.0 0.00 2.40 0.00 89 990.7
20200229060100 48 150 8.0 17.0 0.00 2.40 0.00 89 991.0
20200229055551 49 186 12.0 19.0 0.00 2.40 0.00 89 990.9
20200229055101 49 117 10.0 19.0 0.00 2.40 0.00 89 991.0
20200229054554 49 167 11.0 19.0 0.00 2.40 0.00 89 991.1
20200229054046 49 147 10.0 22.0 0.00 2.40 0.00 88 991.3
20200229053559 49 181 12.0 28.0 0.00 2.40 0.00 89 991.2
20200229053048 49 163 12.0 28.0 0.00 2.40 0.00 89 991.5
20200229052601 49 179 12.0 22.0 0.00 2.40 0.00 89 991.6
20200229052054 49 180 8.0 22.0 0.00 2.40 0.00 89 991.7
20200229051548 49 186 11.0 22.0 0.00 2.40 0.00 89 991.6
20200229051056 49 215 9.0 17.0 0.00 2.40 0.00 89 991.7
20200229050549 49 134 12.0 17.0 0.00 2.40 0.00 89 991.7
20200229050053 50 213 11.0 17.0 0.00 2.40 0.00 89 991.9
20200229045547 50 167 11.0 16.0 0.00 2.40 0.00 90 992.1
20200229045054 50 165 11.0 17.0 0.00 2.40 0.00 90 992.1
20200229044548 50 169 11.0 19.0 0.00 2.40 0.00 90 992.3
20200229044100 50 192 13.0 19.0 0.00 2.40 0.00 91 992.4
20200229043550 50 217 10.0 20.0 0.00 2.40 0.00 91 992.5
20200229043101 50 172 12.0 20.0 0.00 2.40 0.00 91 992.7
20200229042551 50 173 12.0 22.0 0.00 2.40 0.00 91 992.7
20200229042059 49 226 13.0 22.0 0.00 2.40 0.00 92 992.8
20200229041547 49 197 8.0 17.0 0.00 2.40 0.00 92 992.8
20200229041058 49 148 9.0 15.0 0.00 2.40 0.00 92 992.9
20200229040550 49 215 8.0 15.0 0.00 2.40 0.00 92 992.9
20200229040057 49 134 8.0 16.0 0.00 2.40 0.00 93 993.0
20200229035545 49 183 11.0 14.0 0.00 2.40 0.00 93 993.1
20200229035057 49 209 9.0 18.0 0.00 2.40 0.00 93 993.2
20200229034548 49 107 10.0 18.0 0.00 2.40 0.00 93 993.2
20200229034056 49 188 8.0 16.0 0.00 2.40 0.00 93 993.3
20200229033548 49 144 7.0 18.0 0.00 2.40 0.00 93 993.4
20200229033056 49 209 8.0 18.0 0.00 2.40 0.00 94 993.5
20200229032551 49 128 8.0 15.0 0.00 2.40 0.00 94 993.6
20200229032059 49 169 8.0 16.0 0.00 2.40 0.00 93 993.6
20200229031553 49 177 9.0 16.0 0.00 2.40 0.00 94 993.7
20200229031045 49 175 7.0 17.0 0.00 2.40 0.00 93 993.8
20200229030558 50 211 8.0 17.0 0.00 2.40 0.00 93 993.9
20200229030056 50 171 9.0 19.0 0.00 2.40 0.00 93 993.9
20200229025549 50 173 8.0 21.0 0.00 2.40 0.00 93 994.1
20200229025102 50 147 10.0 23.0 0.00 2.40 0.00 93 994.2
20200229024555 50 132 12.0 23.0 0.00 2.40 0.00 93 994.2
20200229024044 50 223 10.0 21.0 0.00 2.40 0.00 93 994.4
20200229023558 50 186 12.0 16.0 0.00 2.40 0.00 93 994.5
20200229023051 50 190 9.0 17.0 0.00 2.40 0.00 93 994.5
20200229022557 50 196 10.0 19.0 0.00 2.40 0.00 93 994.5
20200229022049 50 167 12.0 21.0 0.00 2.40 0.00 93 994.8
20200229021544 50 184 13.0 23.0 0.00 2.40 0.00 93 994.8
20200229021056 50 164 11.0 19.0 0.00 2.40 0.00 93 994.8
20200229020546 50 176 11.0 22.0 0.00 2.40 0.00 93 995.0
20200229020049 50 196 9.0 22.0 0.00 2.40 0.00 93 995.1
20200229015542 50 205 11.0 16.0 0.00 2.40 0.00 94 995.2
20200229015055 50 151 11.0 18.0 0.00 2.40 0.00 94 995.4
20200229014545 50 142 11.0 20.0 0.00 2.40 0.00 94 995.5
20200229014058 50 203 10.0 20.0 0.00 2.40 0.00 94 995.6
20200229013553 50 193 11.0 24.0 0.00 2.40 0.00 94 995.6
20200229013045 49 179 14.0 24.0 0.00 2.40 0.00 94 995.7
20200229012554 49 211 11.0 19.0 0.00 2.40 0.00 94 995.7
20200229012046 49 189 13.0 19.0 0.00 2.40 0.00 95 995.8
20200229011600 49 189 12.0 20.0 0.00 2.40 0.00 95 996.0
20200229011054 49 216 11.0 19.0 0.00 2.40 0.00 95 996.0
20200229010544 49 210 12.0 19.0 0.00 2.40 0.00 95 996.1
20200229010051 49 200 11.0 19.0 0.00 2.40 0.00 95 996.2
20200229005559 49 184 10.0 24.0 0.00 2.40 0.00 95 996.3
20200229005047 49 206 9.0 21.0 0.00 2.40 0.00 95 996.3
20200229004600 49 205 11.0 20.0 0.00 2.40 0.00 95 996.3
20200229004048 49 169 11.0 20.0 0.00 2.40 0.00 96 996.5
20200229003602 49 152 9.0 17.0 0.00 2.40 0.00 96 996.5
20200229003050 49 192 8.0 19.0 0.00 2.40 0.00 96 996.5
20200229002544 49 208 11.0 18.0 0.00 2.40 0.00 96 996.5
20200229002055 49 214 10.0 19.0 0.00 2.40 0.00 96 996.5
20200229001549 49 167 11.0 19.0 0.00 2.40 0.00 96 996.6
20200229001058 49 201 13.0 20.0 0.00 2.40 0.00 96 996.7
20200229000554 48 227 10.0 22.0 0.00 2.40 0.00 96 996.7
20200229000058 48 173 12.0 26.0 0.00 2.40 0.00 96 996.7
20200228235551 48 197 10.0 26.0 0.00 2.40 0.00 96 996.9
20200228235059 48 209 12.0 22.0 0.00 2.40 0.00 96 996.8
20200228234553 48 163 12.0 23.0 0.00 2.40 0.00 96 996.9
20200228234046 48 181 9.0 16.0 0.00 2.40 0.00 96 997.0
20200228233556 48 229 11.0 20.0 0.00 2.40 0.00 97 997.1
20200228233048 48 184 10.0 20.0 0.00 2.40 0.00 97 997.2
20200228232559 48 177 10.0 21.0 0.00 2.40 0.00 97 997.2
20200228232052 48 210 11.0 21.0 0.00 2.40 0.00 97 997.3
20200228231543 48 196 11.0 21.0 0.00 2.40 0.00 97 997.4
20200228231054 48 211 10.0 26.0 0.00 2.40 0.00 97 997.3
20200228230549 47 167 9.0 23.0 0.00 2.40 0.00 97 997.4
20200228230051 47 138 13.0 23.0 0.00 2.40 0.00 97 997.6
20200228225600 47 221 12.0 20.0 0.00 2.40 0.48 97 997.5
20200228225052 47 173 9.0 18.0 0.00 2.40 0.48 97 997.7
20200228224546 47 198 9.0 20.0 0.00 2.40 0.48 97 997.8
20200228224059 47 209 12.0 16.0 0.00 2.40 0.48 97 997.9
20200228223549 47 176 10.0 18.0 0.00 2.40 0.48 97 997.9
20200228223100 47 220 11.0 18.0 0.00 2.40 0.48 97 998.0
20200228222554 46 205 10.0 17.0 0.00 2.40 0.48 97 998.0
20200228222046 46 171 11.0 20.0 0.00 2.40 0.48 97 998.2
20200228221556 46 187 12.0 20.0 0.00 2.40 0.48 97 998.3
20200228221047 46 223 13.0 19.0 0.00 2.40 0.48 97 998.2
20200228220558 46 195 8.0 16.0 0.00 2.40 0.48 97 998.3
20200228220057 45 121 9.0 18.0 0.00 2.40 0.48 97 998.5
20200228215550 45 186 10.0 18.0 0.00 2.40 0.48 97 998.6
20200228215044 45 205 8.0 19.0 0.00 2.40 0.48 97 998.8
20200228214556 45 173 13.0 19.0 0.00 2.40 0.48 97 998.6
20200228214045 45 193 9.0 21.0 0.00 2.40 0.48 97 998.8
20200228213558 45 156 10.0 22.0 0.00 2.40 0.48 97 998.9
20200228213050 45 144 10.0 22.0 0.00 2.40 0.48 97 998.9
20200228212542 45 140 12.0 19.0 0.00 2.40 0.48 97 999.0
20200228212050 45 193 11.0 20.0 0.00 2.40 0.48 97 999.0
20200228211542 45 143 11.0 25.0 0.00 2.40 0.48 97 999.1
20200228211056 44 158 13.0 25.0 0.00 2.40 0.48 97 999.2
20200228210548 44 231 11.0 22.0 0.00 2.40 0.48 97 999.3
20200228210048 44 215 12.0 24.0 0.00 2.40 0.48 97 999.3
20200228205542 44 151 12.0 24.0 0.04 2.40 0.48 97 999.4
20200228205054 44 144 11.0 22.0 0.04 2.40 0.48 97 999.4
20200228204542 44 127 11.0 23.0 0.04 2.40 0.48 97 999.6
20200228204053 44 165 12.0 19.0 0.04 2.40 0.48 97 999.8
20200228203546 44 178 8.0 22.0 0.04 2.40 0.48 97 999.8
20200228203058 44 217 13.0 22.0 0.04 2.40 0.48 96 999.7
20200228202547 43 142 10.0 14.0 0.04 2.40 0.48 96 999.8
20200228202058 43 223 10.0 16.0 0.04 2.40 0.48 96 999.9
20200228201552 43 194 8.0 18.0 0.04 2.40 0.48 97 1000.0
20200228201044 43 202 11.0 20.0 0.04 2.40 0.48 97 1000.0
20200228200554 43 186 11.0 20.0 0.04 2.40 0.48 97 1000.1
20200228200058 43 196 9.0 22.0 0.00 2.36 0.47 96 1000.1
20200228195551 43 194 10.0 21.0 0.04 2.36 0.47 96 1000.2
20200228195042 43 164 11.0 18.0 0.04 2.36 0.47 96 1000.4
20200228194551 42 143 9.0 17.0 0.04 2.36 0.47 96 1000.4
20200228194044 42 151 12.0 23.0 0.08 2.36 0.47 96 1000.5
20200228193557 42 218 10.0 20.0 0.08 2.36 0.47 96 1000.5
20200228193044 42 200 10.0 22.0 0.16 2.36 0.47 96 1000.6
20200228192555 42 131 11.0 22.0 0.20 2.36 0.47 96 1000.8
20200228192045 42 161 10.0 18.0 0.28 2.36 0.47 96 1001.1
20200228191558 41 158 10.0 17.0 0.39 2.36 0.47 96 1001.2
20200228191046 41 155 10.0 17.0 0.43 2.36 0.47 96 1001.2
20200228190600 41 169 11.0 21.0 0.47 2.36 0.47 96 1001.4
20200228190043 41 137 11.0 21.0 0.47 2.36 0.47 96 1001.4
20200228185557 41 159 11.0 18.0 0.43 2.32 0.46 96 1001.5
20200228185046 41 128 11.0 20.0 0.47 2.32 0.46 96 1001.5
20200228184559 41 178 10.0 20.0 0.51 2.32 0.46 96 1001.8
20200228184051 41 160 10.0 20.0 0.55 2.28 0.46 95 1001.8
20200228183545 40 149 12.0 20.0 0.59 2.28 0.46 95 1001.9
20200228183053 40 170 11.0 23.0 0.55 2.20 0.44 95 1002.0
20200228182547 40 149 10.0 16.0 0.59 2.17 0.43 95 1002.2
20200228182058 40 211 9.0 24.0 0.47 2.05 0.41 95 1002.3
20200228181547 40 119 13.0 24.0 0.43 1.97 0.39 95 1002.4
20200228181100 40 181 9.0 16.0 0.43 1.93 0.39 95 1002.6
20200228180551 40 124 9.0 19.0 0.47 1.89 0.38 95 1002.3
20200228180057 40 171 11.0 19.0 0.51 1.89 0.38 95 1002.3
20200228175545 39 174 9.0 21.0 0.59 1.97 0.38 95 1002.4
20200228175058 39 148 11.0 22.0 0.59 1.93 0.37 95 1002.4
20200228174553 39 146 11.0 19.0 0.59 1.85 0.35 95 1002.6
20200228174043 39 126 11.0 17.0 0.63 1.81 0.35 95 1003.0
20200228173552 39 174 10.0 18.0 0.63 1.77 0.34 95 1003.3
20200228173046 39 132 10.0 21.0 0.63 1.69 0.32 95 1003.4
20200228172600 39 111 10.0 22.0 0.67 1.65 0.31 94 1003.0
20200228172051 39 107 13.0 22.0 0.71 1.65 0.31 94 1003.2
20200228171541 39 155 12.0 20.0 0.75 1.61 0.31 94 1003.3
20200228171053 39 177 12.0 20.0 0.71 1.54 0.29 94 1003.4
20200228170548 39 136 11.0 21.0 0.71 1.50 0.28 94 1003.6
20200228170050 38 152 13.0 23.0 0.67 1.42 0.27 93 1003.8
20200228165558 38 144 11.0 23.0 0.67 1.50 0.26 93 1003.9
20200228165047 38 145 15.0 23.0 0.67 1.46 0.25 93 1004.3
20200228164559 38 133 12.0 20.0 0.63 1.38 0.24 93 1004.4
20200228164046 38 134 14.0 22.0 0.59 1.30 0.22 93 1004.8
20200228163557 38 142 13.0 23.0 0.59 1.26 0.21 93 1004.9
20200228163048 38 151 14.0 23.0 0.51 1.18 0.20 92 1005.0
20200228162600 39 137 11.0 22.0 0.47 1.10 0.18 92 1005.2
20200228162044 39 134 11.0 22.0 0.47 1.06 0.17 92 1005.4
20200228161559 39 160 13.0 21.0 0.43 0.98 0.16 92 1005.7
20200228161050 39 116 13.0 24.0 0.43 0.94 0.15 92 1005.7
20200228160544 39 180 12.0 29.0 0.47 0.91 0.14 92 1005.9
20200228160042 39 155 16.0 29.0 0.43 0.87 0.13 92 1006.0
20200228155556 39 134 13.0 27.0 0.47 0.83 0.13 91 1006.3
20200228155049 39 137 18.0 29.0 0.47 0.79 0.12 91 1006.3
20200228154558 40 135 12.0 23.0 0.47 0.75 0.11 91 1006.5
20200228154050 40 148 12.0 24.0 0.43 0.71 0.10 91 1006.7
20200228153543 40 161 12.0 21.0 0.43 0.67 0.09 91 1006.9
20200228153056 40 202 16.0 21.0 0.39 0.63 0.09 90 1007.2
20200228152557 40 124 15.0 20.0 0.43 0.63 0.09 90 1007.5
20200228152049 40 166 10.0 19.0 0.39 0.59 0.08 90 1007.6
20200228151542 40 148 13.0 19.0 0.31 0.51 0.06 89 1007.8
20200228151052 40 144 14.0 25.0 0.31 0.51 0.06 89 1008.0
20200228150541 40 142 13.0 23.0 0.24 0.43 0.05 88 1008.2
20200228150044 41 155 12.0 20.0 0.20 0.39 0.04 88 1008.1
20200228145555 41 128 11.0 20.0 0.16 0.51 0.03 87 1008.4
20200228145100 41 131 10.0 17.0 0.12 0.47 0.02 86 1008.5
20200228144555 41 159 11.0 17.0 0.08 0.43 0.02 85 1008.6
20200228144044 42 188 10.0 17.0 0.04 0.39 0.01 83 1008.7
20200228143541 42 180 9.0 19.0 0.04 0.39 0.01 82 1009.0
20200228143050 43 135 13.0 19.0 0.04 0.39 0.01 80 1009.1
20200228142543 43 219 13.0 22.0 0.00 0.35 0.00 79 1009.2
20200228142057 44 132 13.0 22.0 0.00 0.35 0.00 79 1009.1
20200228141552 44 134 9.0 19.0 0.00 0.35 0.00 78 1009.3
20200228141058 44 146 10.0 19.0 0.00 0.35 0.00 77 1009.5
20200228140549 44 123 9.0 17.0 0.00 0.35 0.00 77 1009.6
20200228140054 44 130 9.0 18.0 0.00 0.35 0.00 76 1009.7
20200228135547 44 182 11.0 18.0 0.00 0.47 0.00 75 1009.7